Regional Weather Roundup
Issued by NWS

Home | Current Version | Previous Version | Text Only | Print | Product List | Glossary On
Versions: 1 2 3 4 5 6 7 8 9 10 11 12 13 14 15 16 17 18 19 20 21 22 23 24 25 26 27 28 29 30 31 32 33 34 35 36 37 38 39 40 41 42 43 44 45 46 47 48 49 50
000
ASUS45 KPSR 240710
RWRAZ

ARIZONA REGIONAL HOURLY WEATHER ROUNDUP
NATIONAL WEATHER SERVICE PHOENIX AZ
1200 AM MST THU APR 24 2014

NOTE: FAIR INDICATES FEW OR NO CLOUDS BELOW 12,000 FEET WITH NO
SIGNIFICANT WEATHER AND/OR OBSTRUCTIONS TO VISIBILITY.

AZZ001>003-036-240800-
NORTHWEST ARIZONA

CITY           SKY/WX    TMP DP  RH WIND       PRES   REMARKS
BULLHEAD CITY  CLEAR     66  12  12 E3        29.89R
KINGMAN        PTCLDY    50   6  16 SE8       29.99S
$$

AZZ004>008-015-016-018-240800-
NORTH CENTRAL ARIZONA

CITY           SKY/WX    TMP DP  RH WIND       PRES   REMARKS
GRAND CANYON   PTCLDY    25   9  50 CALM      30.10R
WILLIAMS       PTCLDY    32   9  37 SE8       30.16F WCI  25
PRESCOTT       PTCLDY    49  12  22 W5        30.03R
FLAGSTAFF      PTCLDY    30  11  45 CALM      30.10R
PAYSON         CLEAR     48  10  21 VRB3      30.06R
PAGE           CLEAR     57  11  16 VRB3      30.02R
$$

AZZ009>014-017-240800-
NORTHEAST ARIZONA

CITY           SKY/WX    TMP DP  RH WIND       PRES   REMARKS
WINSLOW        CLEAR     43  13  29 SW7       30.03R
SAINT JOHNS    CLEAR     45   8  22 SW7       30.04R
WINDOW ROCK    CLEAR     35  10  35 CALM      30.08R
SHOW LOW       CLEAR     37  10  32 S6        30.10S WCI  33
$$

AZZ023-240800-
GREATER PHOENIX AREA

CITY           SKY/WX    TMP DP  RH WIND       PRES   REMARKS
PHOENIX        CLEAR     72  17  12 SW6       29.86R
BUCKEYE          N/A     61  23  23 W5        29.88R
LUKE AFB       NOT AVBL
DEER VALLEY    CLEAR     67  14  13 CALM      29.87R
SCOTTSDALE     CLEAR     72  17  12 CALM      29.89R
MESA-GATEWAY   CLEAR     63  14  15 N3        29.90R
$$

AZZ027-028-240800-
SOUTHWEST MARICOPA COUNTY AND PINAL COUNTY

CITY           SKY/WX    TMP DP  RH WIND       PRES   REMARKS
CASA GRANDE    PTCLDY    64  12  13 S5        29.90R
$$

AZZ503-504-507>509-240800-
SOUTHEAST ARIZONA

CITY           SKY/WX    TMP DP  RH WIND       PRES   REMARKS
TUCSON         CLEAR     63  14  15 S6        29.96R
DAVIS-MONTHAN  CLEAR     61  15  16 S7        29.95R
NOGALES        CLEAR     56  21  25 E3        29.99S
SIERRA VISTA   PTCLDY    57  12  17 W8        30.03R
DOUGLAS        CLEAR     55  13  18 N10       30.00R
SAFFORD        CLEAR     62   7  11 N12       29.93S
$$

AZZ020-021-025-026-031-240800-
SOUTHWEST ARIZONA

CITY           SKY/WX    TMP DP  RH WIND       PRES   REMARKS
YUMA           CLEAR     71  28  20 W6        29.86R
$$

CAZ031-033-041-043-047-048-061-240800-
SOUTHERN CALIFORNIA

CITY           SKY/WX    TMP DP  RH WIND       PRES   REMARKS
DOWNTOWN L.A.  CLEAR     59  50  72 CALM      29.95R
L.A. AIRPORT   CLEAR     61  51  70 CALM      29.95S
SAN DIEGO      PTCLDY    63  53  70 CALM      29.97S
BURBANK        CLEAR     61  44  53 CALM      29.95R
ONTARIO        PTCLDY    61  37  41 CALM      29.95S
RIVERSIDE      CLEAR     60  42  51 CALM      29.95S
PALM SPRINGS   CLEAR     72  43  35 NW9       29.89S
EL CENTRO NAS  CLEAR     66  41  40 W7        29.84S
IMPERIAL       CLEAR     68  35  29 W5        29.84S
BLYTHE         CLEAR     69  12  11 NW5       29.86R
NEEDLES        CLEAR     71  10   9 NW9       29.89R
$$

NVZ020-UTZ003-240800-
SOUTHERN NEVADA-UTAH

CITY           SKY/WX    TMP DP  RH WIND       PRES   REMARKS
LAS VEGAS      MOCLDY    65  14  14 SW9       29.90S
SALT LAKE CITY PTCLDY    40  22  48 SE8       30.07F WCI  34
$$

NMZ009-TXZ055-240800-
NEW MEXICO-WEST TEXAS

CITY           SKY/WX    TMP DP  RH WIND       PRES   REMARKS
ALBUQUERQUE    CLEAR     53  12  19 N8        29.98R
EL PASO        PTCLDY    71  14  11 NW14G22   29.91R
$$


........................KEY........................
SKY/WX - SKY CONDITION/WEATHER
TMP    - TEMPERATURE IN FAHRENHEIT
DP     - DEW POINT IN FAHRENHEIT
RH     - RELATIVE HUMIDITY IN PERCENT
WIND   - DIRECTION AND SPEED IN MILES PER HOUR (MPH)
VRB    - VARIABLE WIND DIRECTION
PRES   - MEAN SEA LEVEL PRESSURE IN INCHES OF MERCURY
         F - FALLING PRESSURE   R - RISING PRESSURE
         S - STEADY PRESSURE
VSB    - VISIBILITY IN MILES
HX     - HEAT INDEX IN FAHRENHEIT
WCI    - WIND CHILL INDEX IN FAHRENHEIT
TC     - TEMPERATURE IN CELSIUS WHICH IS ALSO KNOWN AS
         TEMPERATURE IN CENTIGRADE
AFB    - AIR FORCE BASE
         LUKE AFB IS LUKE AIR FORCE BASE
         DAVIS-MONTHAN IS DAVIS-MONTHAN AIR FORCE BASE
NAS    - NAVAL AIR STATION
         EL CENTRO NAS IS EL CENTRO NAVAL AIR STATION
N/A    - NOT AVAILABLE



USA.gov is the U.S. government's official web portal to all federal, state and local government web resources and services.